Location: Newark
(25.4297°S, 49.2719°W)
Time: 02:39:56
(UTC+00:00)

X-37B - Visible Passes

Search period start: 18 June 2021 00:00
Search period end: 28 June 2021 00:00
Orbit: 386 x 389 km, 45.0° (Epoch: 10 June)

Date Brightness Start Highest point End Pass type
(mag) Time Alt. Az. Time Alt. Az. Time Alt. Az.
18 Jun 2.5 21:47:22 10° WSW 21:50:16 30° NW 21:53:08 10° NNE visible
20 Jun 4.0 21:28:26 10° WNW 21:30:01 13° NW 21:31:34 10° NNW visible
24 Jun 3.9 09:26:51 10° N 09:28:44 15° NE 09:30:38 10° E visible
26 Jun 2.3 09:05:32 10° NNW 09:08:29 35° NE 09:11:28 10° ESE visible
27 Jun 3.7 08:08:29 11° NNE 08:10:16 15° NE 08:12:12 10° E visible
